Time,TemperatureF,DewpointF,PressureIn,WindDirection,WindDirectionDegrees,WindSpeedMPH,WindSpeedGustMPH,Humidity,HourlyPrecipIn,Conditions,Clouds,dailyrainin,SoftwareType,DateUTC
2013-01-19 00:05:00,27.5,19.0,30.39,SW,226,3.0,4.0,70,0.00,,,0.00,Wunderground v.1.15,2013-01-19 05:05:00,
2013-01-19 00:15:00,27.8,19.3,30.39,South,178,3.0,5.0,70,0.00,,,0.00,Wunderground v.1.15,2013-01-19 05:15:00,
2013-01-19 00:20:00,27.8,19.6,30.39,SSW,212,2.0,7.0,71,0.00,,,0.00,Wunderground v.1.15,2013-01-19 05:20:00,
2013-01-19 00:25:00,28.0,19.8,30.38,South,178,3.0,7.0,71,0.00,,,0.00,Wunderground v.1.15,2013-01-19 05:25:00,
2013-01-19 00:30:00,28.0,19.8,30.38,SSW,213,3.0,3.0,71,0.00,,,0.00,Wunderground v.1.15,2013-01-19 05:30:00,
2013-01-19 00:35:00,28.0,20.1,30.38,SSW,194,2.0,3.0,72,0.00,,,0.00,Wunderground v.1.15,2013-01-19 05:35:00,
2013-01-19 00:45:00,28.2,20.3,30.38,South,179,3.0,3.0,72,0.00,,,0.00,Wunderground v.1.15,2013-01-19 05:45:00,
2013-01-19 00:50:00,28.1,20.2,30.37,South,186,2.0,2.0,72,0.00,,,0.00,Wunderground v.1.15,2013-01-19 05:50:00,
2013-01-19 00:55:00,27.9,20.4,30.37,SSW,194,2.0,2.0,73,0.00,,,0.00,Wunderground v.1.15,2013-01-19 05:55:00,
2013-01-19 01:00:00,27.8,20.3,30.37,South,185,2.0,2.0,73,0.00,,,0.00,Wunderground v.1.15,2013-01-19 06:00:00,
2013-01-19 01:10:00,27.7,20.5,30.37,South,184,2.0,2.0,74,0.00,,,0.00,Wunderground v.1.15,2013-01-19 06:10:00,
2013-01-19 01:20:00,27.7,20.8,30.37,South,190,2.0,2.0,75,0.00,,,0.00,Wunderground v.1.15,2013-01-19 06:20:00,
2013-01-19 01:25:00,27.7,21.1,30.37,South,190,3.0,3.0,76,0.00,,,0.00,Wunderground v.1.15,2013-01-19 06:25:00,
2013-01-19 01:30:00,27.7,21.1,30.37,South,184,3.0,3.0,76,0.00,,,0.00,Wunderground v.1.15,2013-01-19 06:30:00,
2013-01-19 01:35:00,27.6,21.0,30.37,SSW,194,2.0,3.0,76,0.00,,,0.00,Wunderground v.1.15,2013-01-19 06:35:00,
2013-01-19 01:40:00,27.6,21.0,30.36,SW,214,2.0,4.0,76,0.00,,,0.00,Wunderground v.1.15,2013-01-19 06:40:00,
2013-01-19 01:45:00,27.6,21.3,30.36,South,184,2.0,4.0,77,0.00,,,0.00,Wunderground v.1.15,2013-01-19 06:45:00,
2013-01-19 01:50:00,27.7,21.4,30.37,South,175,2.0,4.0,77,0.00,,,0.00,Wunderground v.1.15,2013-01-19 06:50:00,
2013-01-19 01:55:00,27.6,21.3,30.36,South,191,3.0,4.0,77,0.00,,,0.00,Wunderground v.1.15,2013-01-19 06:55:00,
2013-01-19 02:00:00,27.6,21.6,30.37,South,178,2.0,2.0,78,0.00,,,0.00,Wunderground v.1.15,2013-01-19 07:00:00,
2013-01-19 02:10:00,27.5,21.5,30.37,South,186,3.0,3.0,78,0.00,,,0.00,Wunderground v.1.15,2013-01-19 07:10:00,
2013-01-19 02:15:00,27.5,21.8,30.36,South,181,3.0,3.0,79,0.00,,,0.00,Wunderground v.1.15,2013-01-19 07:15:00,
2013-01-19 02:20:00,27.7,22.0,30.36,SSW,194,4.0,5.0,79,0.00,,,0.00,Wunderground v.1.15,2013-01-19 07:20:00,
2013-01-19 02:25:00,27.6,21.9,30.36,SSW,195,4.0,6.0,79,0.00,,,0.00,Wunderground v.1.15,2013-01-19 07:25:00,
2013-01-19 02:30:00,27.7,22.3,30.36,SSW,211,4.0,4.0,80,0.00,,,0.00,Wunderground v.1.15,2013-01-19 07:30:00,
2013-01-19 02:35:00,27.6,22.2,30.36,South,170,4.0,5.0,80,0.00,,,0.00,Wunderground v.1.15,2013-01-19 07:35:00,
2013-01-19 02:40:00,27.5,22.1,30.36,SSW,199,3.0,4.0,80,0.00,,,0.00,Wunderground v.1.15,2013-01-19 07:40:00,
2013-01-19 02:45:00,27.6,22.5,30.36,South,186,4.0,4.0,81,0.00,,,0.00,Wunderground v.1.15,2013-01-19 07:45:00,
2013-01-19 02:55:00,27.5,22.4,30.36,SSW,196,3.0,5.0,81,0.00,,,0.00,Wunderground v.1.15,2013-01-19 07:55:00,
2013-01-19 03:00:00,27.6,22.5,30.36,South,178,4.0,4.0,81,0.00,,,0.00,Wunderground v.1.15,2013-01-19 08:00:00,
2013-01-19 03:10:00,27.6,22.8,30.36,SSW,201,4.0,4.0,82,0.00,,,0.00,Wunderground v.1.15,2013-01-19 08:10:00,
2013-01-19 03:15:00,27.7,22.9,30.36,SSW,213,4.0,4.0,82,0.00,,,0.00,Wunderground v.1.15,2013-01-19 08:15:00,
2013-01-19 03:25:00,27.8,23.0,30.35,South,190,4.0,8.0,82,0.00,,,0.00,Wunderground v.1.15,2013-01-19 08:25:00,
2013-01-19 03:30:00,27.9,23.1,30.35,South,185,5.0,9.0,82,0.00,,,0.00,Wunderground v.1.15,2013-01-19 08:30:00,
2013-01-19 03:35:00,28.0,23.2,30.35,South,182,5.0,9.0,82,0.00,,,0.00,Wunderground v.1.15,2013-01-19 08:35:00,
2013-01-19 03:40:00,28.0,23.2,30.34,South,184,5.0,5.0,82,0.00,,,0.00,Wunderground v.1.15,2013-01-19 08:40:00,
2013-01-19 03:45:00,28.0,23.2,30.34,South,169,4.0,5.0,82,0.00,,,0.00,Wunderground v.1.15,2013-01-19 08:45:00,
2013-01-19 03:50:00,27.9,23.1,30.34,SSW,195,5.0,11.0,82,0.00,,,0.00,Wunderground v.1.15,2013-01-19 08:50:00,
2013-01-19 04:00:00,28.0,23.2,30.34,SSW,199,5.0,7.0,82,0.00,,,0.00,Wunderground v.1.15,2013-01-19 09:00:00,
2013-01-19 04:10:00,27.9,23.4,30.33,SSW,211,5.0,6.0,83,0.00,,,0.00,Wunderground v.1.15,2013-01-19 09:10:00,
2013-01-19 04:15:00,27.9,23.4,30.33,South,174,5.0,6.0,83,0.00,,,0.00,Wunderground v.1.15,2013-01-19 09:15:00,
2013-01-19 04:20:00,27.9,23.4,30.33,SSW,192,5.0,7.0,83,0.00,,,0.00,Wunderground v.1.15,2013-01-19 09:20:00,
2013-01-19 04:30:00,27.8,23.3,30.33,SW,219,4.0,6.0,83,0.00,,,0.00,Wunderground v.1.15,2013-01-19 09:30:00,
2013-01-19 04:35:00,27.9,23.4,30.33,SSW,200,4.0,6.0,83,0.00,,,0.00,Wunderground v.1.15,2013-01-19 09:35:00,
2013-01-19 04:40:00,27.7,23.2,30.33,SSW,198,4.0,4.0,83,0.00,,,0.00,Wunderground v.1.15,2013-01-19 09:40:00,
2013-01-19 04:45:00,27.7,23.2,30.33,South,175,4.0,4.0,83,0.00,,,0.00,Wunderground v.1.15,2013-01-19 09:45:00,
2013-01-19 04:50:00,27.7,23.2,30.33,South,180,4.0,4.0,83,0.00,,,0.00,Wunderground v.1.15,2013-01-19 09:50:00,
2013-01-19 04:55:00,27.8,23.3,30.32,South,184,4.0,7.0,83,0.00,,,0.00,Wunderground v.1.15,2013-01-19 09:55:00,
2013-01-19 05:00:00,27.8,23.3,30.32,South,186,4.0,4.0,83,0.00,,,0.00,Wunderground v.1.15,2013-01-19 10:00:00,
2013-01-19 05:10:00,27.8,23.6,30.32,SSW,206,5.0,5.0,84,0.00,,,0.00,Wunderground v.1.15,2013-01-19 10:10:00,
2013-01-19 05:15:00,27.7,23.5,30.32,SSW,192,5.0,6.0,84,0.00,,,0.00,Wunderground v.1.15,2013-01-19 10:15:00,
2013-01-19 05:20:00,27.8,23.6,30.32,South,180,5.0,5.0,84,0.00,,,0.00,Wunderground v.1.15,2013-01-19 10:20:00,
2013-01-19 05:25:00,27.8,23.6,30.32,SW,215,5.0,5.0,84,0.00,,,0.00,Wunderground v.1.15,2013-01-19 10:25:00,
2013-01-19 05:35:00,27.9,23.7,30.31,SSW,213,5.0,8.0,84,0.00,,,0.00,Wunderground v.1.15,2013-01-19 10:35:00,
2013-01-19 05:40:00,27.9,23.7,30.31,SW,229,5.0,8.0,84,0.00,,,0.00,Wunderground v.1.15,2013-01-19 10:40:00,
2013-01-19 05:45:00,27.9,23.7,30.31,South,190,5.0,8.0,84,0.00,,,0.00,Wunderground v.1.15,2013-01-19 10:45:00,
2013-01-19 05:50:00,28.0,23.8,30.31,SW,215,5.0,5.0,84,0.00,,,0.00,Wunderground v.1.15,2013-01-19 10:50:00,
2013-01-19 05:55:00,27.9,23.7,30.31,SSW,194,5.0,8.0,84,0.00,,,0.00,Wunderground v.1.15,2013-01-19 10:55:00,
2013-01-19 06:00:00,27.9,23.7,30.31,SSW,192,5.0,5.0,84,0.00,,,0.00,Wunderground v.1.15,2013-01-19 11:00:00,
2013-01-19 06:10:00,27.9,23.7,30.31,SSW,203,5.0,5.0,84,0.00,,,0.00,Wunderground v.1.15,2013-01-19 11:10:00,
2013-01-19 06:15:00,27.9,23.7,30.31,SSW,192,6.0,7.0,84,0.00,,,0.00,Wunderground v.1.15,2013-01-19 11:15:00,
2013-01-19 07:50:00,27.9,23.7,30.31,SW,225,4.0,5.0,84,0.00,,,0.00,Wunderground v.1.15,2013-01-19 12:50:00,
2013-01-19 07:55:00,27.9,23.4,30.31,SW,217,4.0,5.0,83,0.00,,,0.00,Wunderground v.1.15,2013-01-19 12:55:00,
2013-01-19 08:00:00,28.0,23.8,30.31,SSW,192,4.0,4.0,84,0.00,,,0.00,Wunderground v.1.15,2013-01-19 13:00:00,
2013-01-19 08:10:00,28.3,23.8,30.31,SSW,198,5.0,8.0,83,0.00,,,0.00,Wunderground v.1.15,2013-01-19 13:10:00,
2013-01-19 08:15:00,28.6,24.1,30.30,SSW,193,5.0,8.0,83,0.00,,,0.00,Wunderground v.1.15,2013-01-19 13:15:00,
2013-01-19 08:20:00,28.8,24.3,30.31,SW,215,5.0,6.0,83,0.00,,,0.00,Wunderground v.1.15,2013-01-19 13:20:00,
2013-01-19 08:30:00,29.4,24.6,30.31,SSW,193,6.0,6.0,82,0.00,,,0.00,Wunderground v.1.15,2013-01-19 13:30:00,
2013-01-19 08:35:00,29.6,24.5,30.31,SSW,202,7.0,7.0,81,0.00,,,0.00,Wunderground v.1.15,2013-01-19 13:35:00,
2013-01-19 08:40:00,29.9,24.8,30.31,SSW,194,7.0,8.0,81,0.00,,,0.00,Wunderground v.1.15,2013-01-19 13:40:00,
2013-01-19 08:45:00,30.1,25.0,30.31,SSW,200,7.0,9.0,81,0.00,,,0.00,Wunderground v.1.15,2013-01-19 13:45:00,
2013-01-19 08:50:00,30.4,25.0,30.31,South,180,6.0,6.0,80,0.00,,,0.00,Wunderground v.1.15,2013-01-19 13:50:00,
2013-01-19 08:55:00,30.6,25.2,30.31,South,187,6.0,9.0,80,0.00,,,0.00,Wunderground v.1.15,2013-01-19 13:55:00,
2013-01-19 09:00:00,30.8,25.4,30.31,SW,227,7.0,7.0,80,0.00,,,0.00,Wunderground v.1.15,2013-01-19 14:00:00,
2013-01-19 09:10:00,31.2,25.4,30.31,SSW,200,7.0,8.0,79,0.00,,,0.00,Wunderground v.1.15,2013-01-19 14:10:00,
2013-01-19 09:15:00,31.4,25.3,30.31,SSW,193,7.0,8.0,78,0.00,,,0.00,Wunderground v.1.15,2013-01-19 14:15:00,
2013-01-19 09:20:00,31.8,25.7,30.31,SSW,209,6.0,6.0,78,0.00,,,0.00,Wunderground v.1.15,2013-01-19 14:20:00,
2013-01-19 09:25:00,32.0,25.3,30.31,SSE,150,7.0,7.0,76,0.00,,,0.00,Wunderground v.1.15,2013-01-19 14:25:00,
2013-01-19 09:35:00,32.4,25.7,30.31,SE,136,7.0,10.0,76,0.00,,,0.00,Wunderground v.1.15,2013-01-19 14:35:00,
2013-01-19 09:40:00,32.7,26.0,30.31,South,184,7.0,8.0,76,0.00,,,0.00,Wunderground v.1.15,2013-01-19 14:40:00,
2013-01-19 09:45:00,33.1,26.0,30.31,SSW,212,7.0,9.0,75,0.00,,,0.00,Wunderground v.1.15,2013-01-19 14:45:00,
2013-01-19 09:50:00,33.3,25.9,30.31,SSW,200,7.0,9.0,74,0.00,,,0.00,Wunderground v.1.15,2013-01-19 14:50:00,
2013-01-19 09:55:00,33.8,26.4,30.31,SSW,208,7.0,9.0,74,0.00,,,0.00,Wunderground v.1.15,2013-01-19 14:55:00,
2013-01-19 10:00:00,34.1,26.3,30.31,SSW,194,7.0,7.0,73,0.00,,,0.00,Wunderground v.1.15,2013-01-19 15:00:00,
2013-01-19 10:10:00,35.1,27.0,30.31,SSW,198,6.0,6.0,72,0.00,,,0.00,Wunderground v.1.15,2013-01-19 15:10:00,
2013-01-19 10:15:00,35.5,27.7,30.31,South,189,5.0,6.0,73,0.00,,,0.00,Wunderground v.1.15,2013-01-19 15:15:00,
2013-01-19 10:20:00,36.0,27.5,30.30,South,183,5.0,6.0,71,0.00,,,0.00,Wunderground v.1.15,2013-01-19 15:20:00,
2013-01-19 10:25:00,36.1,27.3,30.30,SSW,192,6.0,9.0,70,0.00,,,0.00,Wunderground v.1.15,2013-01-19 15:25:00,
2013-01-19 10:30:00,36.7,27.8,30.30,South,173,6.0,7.0,70,0.00,,,0.00,Wunderground v.1.15,2013-01-19 15:30:00,
2013-01-19 10:40:00,37.0,27.4,30.29,SSW,205,7.0,11.0,68,0.00,,,0.00,Wunderground v.1.15,2013-01-19 15:40:00,
2013-01-19 10:45:00,37.1,27.2,30.29,SSE,166,8.0,11.0,67,0.00,,,0.00,Wunderground v.1.15,2013-01-19 15:45:00,
2013-01-19 10:50:00,37.5,27.5,30.29,SSE,157,8.0,8.0,67,0.00,,,0.00,Wunderground v.1.15,2013-01-19 15:50:00,
2013-01-19 10:55:00,37.9,27.5,30.29,ESE,122,7.0,8.0,66,0.00,,,0.00,Wunderground v.1.15,2013-01-19 15:55:00,
2013-01-19 11:00:00,38.4,28.0,30.28,South,183,7.0,7.0,66,0.00,,,0.00,Wunderground v.1.15,2013-01-19 16:00:00,
2013-01-19 11:10:00,39.1,28.7,30.27,SE,135,7.0,7.0,66,0.00,,,0.00,Wunderground v.1.15,2013-01-19 16:10:00,
2013-01-19 11:15:00,40.1,28.5,30.27,South,190,6.0,9.0,63,0.00,,,0.00,Wunderground v.1.15,2013-01-19 16:15:00,
2013-01-19 11:20:00,40.3,28.3,30.27,SSW,206,6.0,6.0,62,0.00,,,0.00,Wunderground v.1.15,2013-01-19 16:20:00,
2013-01-19 11:25:00,40.4,28.4,30.26,SSW,194,7.0,7.0,62,0.00,,,0.00,Wunderground v.1.15,2013-01-19 16:25:00,
2013-01-19 11:30:00,40.7,29.1,30.26,SSE,150,6.0,6.0,63,0.00,,,0.00,Wunderground v.1.15,2013-01-19 16:30:00,
2013-01-19 11:35:00,41.4,29.3,30.25,SSE,163,5.0,6.0,62,0.00,,,0.00,Wunderground v.1.15,2013-01-19 16:35:00,
2013-01-19 11:40:00,41.6,28.7,30.25,South,186,6.0,7.0,60,0.00,,,0.00,Wunderground v.1.15,2013-01-19 16:40:00,
2013-01-19 11:45:00,42.0,29.5,30.24,South,191,7.0,11.0,61,0.00,,,0.00,Wunderground v.1.15,2013-01-19 16:45:00,
2013-01-19 11:50:00,42.1,28.8,30.23,South,173,7.0,8.0,59,0.00,,,0.00,Wunderground v.1.15,2013-01-19 16:50:00,
2013-01-19 11:55:00,42.3,29.0,30.23,SSW,198,7.0,8.0,59,0.00,,,0.00,Wunderground v.1.15,2013-01-19 16:55:00,
2013-01-19 12:00:00,42.9,29.1,30.22,SSE,156,7.0,8.0,58,0.00,,,0.00,Wunderground v.1.15,2013-01-19 17:00:00,
2013-01-19 12:10:00,43.7,29.0,30.21,SSW,209,5.0,7.0,56,0.00,,,0.00,Wunderground v.1.15,2013-01-19 17:10:00,
2013-01-19 12:20:00,44.1,29.8,30.20,SSW,206,7.0,7.0,57,0.00,,,0.00,Wunderground v.1.15,2013-01-19 17:20:00,
2013-01-19 12:25:00,44.3,29.1,30.20,South,185,6.0,7.0,55,0.00,,,0.00,Wunderground v.1.15,2013-01-19 17:25:00,
2013-01-19 12:30:00,44.3,29.1,30.19,SW,224,7.0,8.0,55,0.00,,,0.00,Wunderground v.1.15,2013-01-19 17:30:00,
2013-01-19 12:35:00,44.5,29.8,30.19,SSW,209,7.0,8.0,56,0.00,,,0.00,Wunderground v.1.15,2013-01-19 17:35:00,
2013-01-19 12:40:00,45.0,30.2,30.18,SW,217,6.0,9.0,56,0.00,,,0.00,Wunderground v.1.15,2013-01-19 17:40:00,
2013-01-19 12:45:00,45.1,29.9,30.18,SSW,207,7.0,9.0,55,0.00,,,0.00,Wunderground v.1.15,2013-01-19 17:45:00,
2013-01-19 12:55:00,45.8,30.1,30.17,South,175,7.0,11.0,54,0.00,,,0.00,Wunderground v.1.15,2013-01-19 17:55:00,
2013-01-19 13:00:00,46.1,30.4,30.17,SSW,194,7.0,7.0,54,0.00,,,0.00,Wunderground v.1.15,2013-01-19 18:00:00,
2013-01-19 13:10:00,46.7,30.5,30.16,SSW,200,8.0,8.0,53,0.00,,,0.00,Wunderground v.1.15,2013-01-19 18:10:00,
2013-01-19 13:15:00,47.0,30.3,30.16,SE,126,8.0,8.0,52,0.00,,,0.00,Wunderground v.1.15,2013-01-19 18:15:00,
2013-01-19 13:25:00,47.9,30.1,30.15,South,175,8.0,9.0,50,0.00,,,0.00,Wunderground v.1.15,2013-01-19 18:25:00,
2013-01-19 13:30:00,48.2,30.9,30.15,SSE,161,8.0,8.0,51,0.00,,,0.00,Wunderground v.1.15,2013-01-19 18:30:00,
2013-01-19 13:40:00,49.0,31.2,30.14,South,185,8.0,8.0,50,0.00,,,0.00,Wunderground v.1.15,2013-01-19 18:40:00,
2013-01-19 13:50:00,49.0,30.7,30.13,South,188,9.0,9.0,49,0.00,,,0.00,Wunderground v.1.15,2013-01-19 18:50:00,
2013-01-19 13:55:00,49.5,31.1,30.13,SW,215,8.0,9.0,49,0.00,,,0.00,Wunderground v.1.15,2013-01-19 18:55:00,
2013-01-19 14:00:00,49.7,30.3,30.13,SSW,207,8.0,10.0,47,0.00,,,0.00,Wunderground v.1.15,2013-01-19 19:00:00,
2013-01-19 14:10:00,50.3,30.3,30.12,SSW,198,9.0,10.0,46,0.00,,,0.00,Wunderground v.1.15,2013-01-19 19:10:00,
2013-01-19 14:15:00,50.5,29.9,30.11,South,188,9.0,10.0,45,0.00,,,0.00,Wunderground v.1.15,2013-01-19 19:15:00,
2013-01-19 14:20:00,50.8,30.2,30.11,SSW,196,8.0,10.0,45,0.00,,,0.00,Wunderground v.1.15,2013-01-19 19:20:00,
2013-01-19 14:25:00,51.0,30.4,30.11,South,191,8.0,10.0,45,0.00,,,0.00,Wunderground v.1.15,2013-01-19 19:25:00,
2013-01-19 14:30:00,51.3,30.7,30.11,South,190,8.0,9.0,45,0.00,,,0.00,Wunderground v.1.15,2013-01-19 19:30:00,
2013-01-19 14:35:00,51.4,30.7,30.10,SSW,192,8.0,10.0,45,0.00,,,0.00,Wunderground v.1.15,2013-01-19 19:35:00,
2013-01-19 14:45:00,51.9,30.6,30.10,South,190,8.0,9.0,44,0.00,,,0.00,Wunderground v.1.15,2013-01-19 19:45:00,
2013-01-19 14:50:00,52.1,31.4,30.09,SSW,196,9.0,9.0,45,0.00,,,0.00,Wunderground v.1.15,2013-01-19 19:50:00,
2013-01-19 14:55:00,52.0,30.7,30.09,SSW,200,8.0,9.0,44,0.00,,,0.00,Wunderground v.1.15,2013-01-19 19:55:00,
2013-01-19 15:00:00,52.2,30.4,30.09,SSW,207,8.0,8.0,43,0.00,,,0.00,Wunderground v.1.15,2013-01-19 20:00:00,
2013-01-19 15:10:00,52.3,31.0,30.09,SSW,194,8.0,11.0,44,0.00,,,0.00,Wunderground v.1.15,2013-01-19 20:10:00,
2013-01-19 15:15:00,52.3,30.4,30.09,WSW,240,9.0,11.0,43,0.00,,,0.00,Wunderground v.1.15,2013-01-19 20:15:00,
2013-01-19 15:25:00,52.8,30.9,30.08,South,180,7.0,8.0,43,0.00,,,0.00,Wunderground v.1.15,2013-01-19 20:25:00,
2013-01-19 15:35:00,52.9,31.0,30.08,SSW,205,7.0,11.0,43,0.00,,,0.00,Wunderground v.1.15,2013-01-19 20:35:00,
2013-01-19 15:40:00,52.9,31.0,30.08,WSW,242,7.0,9.0,43,0.00,,,0.00,Wunderground v.1.15,2013-01-19 20:40:00,
2013-01-19 15:45:00,52.9,30.4,30.07,SSW,207,7.0,9.0,42,0.00,,,0.00,Wunderground v.1.15,2013-01-19 20:45:00,
2013-01-19 15:55:00,52.7,30.8,30.07,South,185,8.0,9.0,43,0.00,,,0.00,Wunderground v.1.15,2013-01-19 20:55:00,
2013-01-19 16:00:00,52.7,30.8,30.06,SSW,201,7.0,7.0,43,0.00,,,0.00,Wunderground v.1.15,2013-01-19 21:00:00,
2013-01-19 16:10:00,52.6,30.7,30.06,SSW,212,7.0,8.0,43,0.00,,,0.00,Wunderground v.1.15,2013-01-19 21:10:00,
2013-01-19 16:15:00,52.7,30.2,30.06,South,180,7.0,8.0,42,0.00,,,0.00,Wunderground v.1.15,2013-01-19 21:15:00,
2013-01-19 16:25:00,52.6,30.1,30.06,SSW,195,7.0,10.0,42,0.00,,,0.00,Wunderground v.1.15,2013-01-19 21:25:00,
2013-01-19 16:30:00,52.6,30.1,30.06,SW,221,6.0,6.0,42,0.00,,,0.00,Wunderground v.1.15,2013-01-19 21:30:00,
2013-01-19 16:35:00,52.5,30.0,30.06,SSW,200,6.0,6.0,42,0.00,,,0.00,Wunderground v.1.15,2013-01-19 21:35:00,
2013-01-19 16:45:00,51.9,30.1,30.06,SSW,208,5.0,7.0,43,0.00,,,0.00,Wunderground v.1.15,2013-01-19 21:45:00,
2013-01-19 16:50:00,51.5,30.3,30.05,SSW,205,5.0,5.0,44,0.00,,,0.00,Wunderground v.1.15,2013-01-19 21:50:00,
2013-01-19 17:00:00,50.9,30.3,30.05,SW,219,5.0,6.0,45,0.00,,,0.00,Wunderground v.1.15,2013-01-19 22:00:00,
2013-01-19 17:10:00,50.4,29.8,30.05,SSW,208,5.0,5.0,45,0.00,,,0.00,Wunderground v.1.15,2013-01-19 22:10:00,
2013-01-19 17:15:00,50.2,29.7,30.05,South,187,5.0,5.0,45,0.00,,,0.00,Wunderground v.1.15,2013-01-19 22:15:00,
2013-01-19 17:20:00,49.9,29.9,30.05,SW,223,5.0,5.0,46,0.00,,,0.00,Wunderground v.1.15,2013-01-19 22:20:00,
2013-01-19 17:25:00,49.6,29.6,30.05,SSW,207,5.0,5.0,46,0.00,,,0.00,Wunderground v.1.15,2013-01-19 22:25:00,
2013-01-19 17:30:00,49.2,29.8,30.05,South,183,5.0,6.0,47,0.00,,,0.00,Wunderground v.1.15,2013-01-19 22:30:00,
2013-01-19 17:40:00,48.7,29.9,30.04,SSW,208,5.0,7.0,48,0.00,,,0.00,Wunderground v.1.15,2013-01-19 22:40:00,
2013-01-19 17:45:00,48.3,29.5,30.04,SW,221,5.0,7.0,48,0.00,,,0.00,Wunderground v.1.15,2013-01-19 22:45:00,
2013-01-19 17:50:00,48.0,29.7,30.04,SW,228,4.0,4.0,49,0.00,,,0.00,Wunderground v.1.15,2013-01-19 22:50:00,
2013-01-19 17:55:00,47.7,30.0,30.04,SSW,199,4.0,4.0,50,0.00,,,0.00,Wunderground v.1.15,2013-01-19 22:55:00,
2013-01-19 18:00:00,47.4,29.7,30.04,SW,223,4.0,5.0,50,0.00,,,0.00,Wunderground v.1.15,2013-01-19 23:00:00,
2013-01-19 18:10:00,47.2,30.0,30.04,SW,222,4.0,5.0,51,0.00,,,0.00,Wunderground v.1.15,2013-01-19 23:10:00,
2013-01-19 18:20:00,46.8,29.6,30.04,SW,230,5.0,5.0,51,0.00,,,0.00,Wunderground v.1.15,2013-01-19 23:20:00,
2013-01-19 18:25:00,46.5,29.8,30.04,SSW,211,4.0,5.0,52,0.00,,,0.00,Wunderground v.1.15,2013-01-19 23:25:00,
2013-01-19 18:30:00,46.3,29.6,30.04,SW,230,4.0,5.0,52,0.00,,,0.00,Wunderground v.1.15,2013-01-19 23:30:00,
2013-01-19 18:35:00,46.1,29.4,30.04,SSW,209,3.0,5.0,52,0.00,,,0.00,Wunderground v.1.15,2013-01-19 23:35:00,
2013-01-19 18:40:00,45.9,29.7,30.04,SW,215,3.0,4.0,53,0.00,,,0.00,Wunderground v.1.15,2013-01-19 23:40:00,
2013-01-19 18:50:00,45.5,29.3,30.04,SSW,192,3.0,4.0,53,0.00,,,0.00,Wunderground v.1.15,2013-01-19 23:50:00,
2013-01-19 19:00:00,45.0,29.3,30.04,South,182,3.0,4.0,54,0.00,,,0.00,Wunderground v.1.15,2013-01-20 00:00:00,
2013-01-19 19:10:00,44.7,29.5,30.03,SSW,192,3.0,3.0,55,0.00,,,0.00,Wunderground v.1.15,2013-01-20 00:10:00,
2013-01-19 19:15:00,44.8,29.6,30.03,SW,216,4.0,5.0,55,0.00,,,0.00,Wunderground v.1.15,2013-01-20 00:15:00,
2013-01-19 19:20:00,44.7,29.5,30.03,SSW,212,4.0,5.0,55,0.00,,,0.00,Wunderground v.1.15,2013-01-20 00:20:00,
2013-01-19 19:30:00,44.5,29.3,30.03,SSW,207,5.0,6.0,55,0.00,,,0.00,Wunderground v.1.15,2013-01-20 00:30:00,
2013-01-19 19:35:00,44.5,29.3,30.02,SW,233,5.0,8.0,55,0.00,,,0.00,Wunderground v.1.15,2013-01-20 00:35:00,
2013-01-19 19:40:00,44.5,29.3,30.03,SW,221,6.0,8.0,55,0.00,,,0.00,Wunderground v.1.15,2013-01-20 00:40:00,
2013-01-19 19:50:00,44.4,29.7,30.03,SW,214,6.0,6.0,56,0.00,,,0.00,Wunderground v.1.15,2013-01-20 00:50:00,
2013-01-19 19:55:00,44.3,29.6,30.03,SSW,198,6.0,7.0,56,0.00,,,0.00,Wunderground v.1.15,2013-01-20 00:55:00,
2013-01-19 20:00:00,44.3,29.6,30.02,SSW,194,6.0,7.0,56,0.00,,,0.00,Wunderground v.1.15,2013-01-20 01:00:00,
2013-01-19 20:10:00,44.2,29.5,30.02,SSW,211,6.0,7.0,56,0.00,,,0.00,Wunderground v.1.15,2013-01-20 01:10:00,
2013-01-19 20:25:00,43.9,29.6,30.02,South,171,7.0,7.0,57,0.00,,,0.00,Wunderground v.1.15,2013-01-20 01:25:00,
2013-01-19 20:30:00,43.8,29.5,30.02,South,173,6.0,7.0,57,0.00,,,0.00,Wunderground v.1.15,2013-01-20 01:30:00,
2013-01-19 20:35:00,43.8,29.5,30.02,SSW,212,6.0,7.0,57,0.00,,,0.00,Wunderground v.1.15,2013-01-20 01:35:00,
2013-01-19 20:40:00,43.6,29.4,30.02,SSW,209,6.0,7.0,57,0.00,,,0.00,Wunderground v.1.15,2013-01-20 01:40:00,
2013-01-19 20:55:00,43.1,29.3,30.01,SSW,196,6.0,10.0,58,0.00,,,0.00,Wunderground v.1.15,2013-01-20 01:55:00,
2013-01-19 21:00:00,43.0,29.2,30.01,SSW,212,6.0,6.0,58,0.00,,,0.00,Wunderground v.1.15,2013-01-20 02:00:00,
2013-01-19 21:10:00,42.7,29.4,30.01,SSW,213,6.0,6.0,59,0.00,,,0.00,Wunderground v.1.15,2013-01-20 02:10:00,
2013-01-19 21:20:00,42.3,29.4,30.00,SSW,200,5.0,9.0,60,0.00,,,0.00,Wunderground v.1.15,2013-01-20 02:20:00,
2013-01-19 21:30:00,41.8,28.9,30.00,SSW,204,5.0,5.0,60,0.00,,,0.00,Wunderground v.1.15,2013-01-20 02:30:00,
2013-01-19 21:35:00,41.7,29.2,30.00,SSW,200,5.0,5.0,61,0.00,,,0.00,Wunderground v.1.15,2013-01-20 02:35:00,
2013-01-19 21:40:00,41.6,29.1,30.00,SSW,198,5.0,5.0,61,0.00,,,0.00,Wunderground v.1.15,2013-01-20 02:40:00,
2013-01-19 21:45:00,41.3,29.3,29.99,WSW,240,5.0,5.0,62,0.00,,,0.00,Wunderground v.1.15,2013-01-20 02:45:00,
2013-01-19 21:55:00,40.9,29.3,29.99,SSW,198,4.0,5.0,63,0.00,,,0.00,Wunderground v.1.15,2013-01-20 02:55:00,
2013-01-19 22:00:00,40.6,29.0,29.99,SSW,212,4.0,4.0,63,0.00,,,0.00,Wunderground v.1.15,2013-01-20 03:00:00,
2013-01-19 22:10:00,40.4,29.2,29.98,SW,218,4.0,5.0,64,0.00,,,0.00,Wunderground v.1.15,2013-01-20 03:10:00,
2013-01-19 22:15:00,40.2,29.0,29.98,SSW,213,3.0,5.0,64,0.00,,,0.00,Wunderground v.1.15,2013-01-20 03:15:00,
2013-01-19 22:20:00,40.1,28.9,29.98,SSW,211,3.0,7.0,64,0.00,,,0.00,Wunderground v.1.15,2013-01-20 03:20:00,
2013-01-19 22:25:00,40.0,29.2,29.98,SW,219,4.0,7.0,65,0.00,,,0.00,Wunderground v.1.15,2013-01-20 03:25:00,
2013-01-19 22:30:00,39.8,29.0,29.97,SSW,192,4.0,4.0,65,0.00,,,0.00,Wunderground v.1.15,2013-01-20 03:30:00,
2013-01-19 22:40:00,39.3,28.9,29.97,South,176,4.0,4.0,66,0.00,,,0.00,Wunderground v.1.15,2013-01-20 03:40:00,
2013-01-19 22:45:00,39.3,28.9,29.97,SSW,198,4.0,4.0,66,0.00,,,0.00,Wunderground v.1.15,2013-01-20 03:45:00,
2013-01-19 22:50:00,39.3,28.9,29.96,SSW,202,4.0,4.0,66,0.00,,,0.00,Wunderground v.1.15,2013-01-20 03:50:00,
2013-01-19 22:55:00,39.4,29.0,29.96,SW,215,4.0,6.0,66,0.00,,,0.00,Wunderground v.1.15,2013-01-20 03:55:00,
2013-01-19 23:00:00,39.5,29.1,29.96,SSW,200,5.0,5.0,66,0.00,,,0.00,Wunderground v.1.15,2013-01-20 04:00:00,
2013-01-19 23:10:00,39.3,28.9,29.95,South,184,5.0,5.0,66,0.00,,,0.00,Wunderground v.1.15,2013-01-20 04:10:00,
2013-01-19 23:15:00,39.3,29.3,29.95,South,190,5.0,5.0,67,0.00,,,0.00,Wunderground v.1.15,2013-01-20 04:15:00,
2013-01-19 23:20:00,39.4,29.3,29.95,South,190,6.0,6.0,67,0.00,,,0.00,Wunderground v.1.15,2013-01-20 04:20:00,
2013-01-19 23:25:00,39.3,29.3,29.94,SSW,203,6.0,9.0,67,0.00,,,0.00,Wunderground v.1.15,2013-01-20 04:25:00,
2013-01-19 23:30:00,39.2,29.2,29.94,South,189,6.0,6.0,67,0.00,,,0.00,Wunderground v.1.15,2013-01-20 04:30:00,
2013-01-19 23:35:00,39.4,29.3,29.94,SW,235,7.0,7.0,67,0.00,,,0.00,Wunderground v.1.15,2013-01-20 04:35:00,
2013-01-19 23:40:00,39.5,29.4,29.93,SSW,192,7.0,7.0,67,0.00,,,0.00,Wunderground v.1.15,2013-01-20 04:40:00,
2013-01-19 23:45:00,39.4,29.3,29.93,South,169,7.0,10.0,67,0.00,,,0.00,Wunderground v.1.15,2013-01-20 04:45:00,
2013-01-19 23:50:00,39.3,29.3,29.92,SW,234,7.0,7.0,67,0.00,,,0.00,Wunderground v.1.15,2013-01-20 04:50:00,
2013-01-19 23:55:00,39.2,29.5,29.93,SSW,202,6.0,9.0,68,0.00,,,0.00,Wunderground v.1.15,2013-01-20 04:55:00,